Madison, MN

1:17 AM CDT on June 29, 2017 (GMT -0500)
Madison-Lac Qui Parle County

Weather History for KDXX - May, 2013

Change the Weather History Date:

Sunday, May 5, 2013

  Actual Average (KAQP) Record (KAQP)
Temperature  
Mean Temperature 42 °F -  
Max Temperature 48 °F 63 °F 91 °F (2000)
Min Temperature 37 °F 39 °F 6 °F (1999)
Degree Days  
Heating Degree Days 22    
Moisture  
Dew Point 38 °F    
Average Humidity 85    
Maximum Humidity 100    
Minimum Humidity 71    
Precipitation  
Precipitation 0.00 in - - ()
Sea Level Pressure  
Sea Level Pressure 30.18 in    
Wind  
Wind Speed 7 mph (NNW)    
Max Wind Speed 12 mph    
Max Gust Speed 16 mph    
Visibility 10 miles    
Events Rain    
Averages and records for this station are not official NWS values.
T = Trace of Precipitation, MM = Missing Value Source: NWS Daily Summary

Daily Weather History Graph

Daily Weather History Graph

Search for Another Location

Airport or City:

Trip Planner

Search our weather history database for the weather conditions in past years. The results will help you decide how hot, cold, wet, or windy it might be!

Date:

Astronomy

May. 05, 2013 Rise Set
Actual Time 6:07 AM CDT 8:35 PM CDT
Civil Twilight 5:35 AM CDT 9:08 PM CDT
Nautical Twilight 4:54 AM CDT 9:49 PM CDT
Astronomical Twilight 4:07 AM CDT 10:36 PM CDT
Moon 3:50 AM CDT (5/5) 4:26 PM CDT (5/5)
Length of Visible Light 15h 33m
Length of Day
14h 27m
Waning Crescent, 18% of the Moon is Illuminated
May 5
Waning Crescent
May 9
New
May 17
First Quarter
May 24
Full
May 31
Last Quarter

Hourly Weather History & Observations

Time (CDT) Temp. Windchill Dew Point Humidity Pressure Visibility Wind Dir Wind Speed Gust Speed Precip Events Conditions
12:14 AM 39.2 °F 35.0 °F 37.4 °F 93% 30.21 in 10.0 mi North 5.8 mph - N/A   Overcast
12:33 AM 39.2 °F 35.9 °F 37.4 °F 93% 30.21 in 10.0 mi North 4.6 mph - N/A   Overcast
12:54 AM 39.2 °F 34.2 °F 37.4 °F 93% 30.20 in 10.0 mi North 6.9 mph - N/A   Overcast
1:14 AM 39.2 °F 35.9 °F 37.4 °F 93% 30.21 in 10.0 mi North 4.6 mph - N/A   Overcast
1:33 AM 39.2 °F 35.0 °F 37.4 °F 93% 30.20 in 10.0 mi North 5.8 mph - N/A   Overcast
1:54 AM 39.2 °F 37.0 °F 37.4 °F 93% 30.20 in 10.0 mi North 3.5 mph - N/A   Mostly Cloudy
2:14 AM 39.2 °F 35.0 °F 37.4 °F 93% 30.19 in 10.0 mi North 5.8 mph - N/A   Scattered Clouds
2:33 AM 37.4 °F 32.1 °F 37.4 °F 100% 30.19 in 7.0 mi North 6.9 mph - N/A   Scattered Clouds
2:54 AM 37.4 °F 31.4 °F 37.4 °F 100% 30.18 in 7.0 mi North 8.1 mph - N/A   Scattered Clouds
3:13 AM 37.4 °F 32.8 °F 37.4 °F 100% 30.18 in 7.0 mi North 5.8 mph - N/A   Scattered Clouds
3:34 AM 37.4 °F 32.8 °F 37.4 °F 100% 30.19 in 10.0 mi North 5.8 mph - N/A   Drizzle
3:54 AM 37.4 °F 32.1 °F 37.4 °F 100% 30.19 in 10.0 mi North 6.9 mph - N/A   Clear
4:13 AM 37.4 °F 32.1 °F 37.4 °F 100% 30.19 in 7.0 mi North 6.9 mph - N/A Rain Rain
4:34 AM 37.4 °F 32.8 °F 37.4 °F 100% 30.19 in 10.0 mi North 5.8 mph - N/A Rain Rain
4:54 AM 37.4 °F 32.8 °F 37.4 °F 100% 30.19 in 10.0 mi North 5.8 mph - N/A Rain Rain
5:13 AM 37.4 °F 32.8 °F 37.4 °F 100% 30.20 in 10.0 mi North 5.8 mph - N/A Rain Rain
5:54 AM 37.4 °F 32.1 °F 37.4 °F 100% 30.19 in 10.0 mi North 6.9 mph - N/A   Scattered Clouds
6:13 AM 37.4 °F 31.4 °F 37.4 °F 100% 30.19 in 10.0 mi North 8.1 mph - N/A   Scattered Clouds
6:34 AM 37.4 °F 32.1 °F 37.4 °F 100% 30.19 in 10.0 mi North 6.9 mph - N/A   Mostly Cloudy
6:54 AM 37.4 °F 32.8 °F 37.4 °F 100% 30.20 in 10.0 mi North 5.8 mph - N/A   Mostly Cloudy
7:13 AM 37.4 °F 32.8 °F 37.4 °F 100% 30.20 in 10.0 mi North 5.8 mph - N/A   Mostly Cloudy
7:34 AM 39.2 °F 34.2 °F 37.4 °F 93% 30.20 in 10.0 mi North 6.9 mph - N/A   Mostly Cloudy
7:54 AM 39.2 °F 35.0 °F 37.4 °F 93% 30.21 in 10.0 mi North 5.8 mph - N/A   Scattered Clouds
8:14 AM 39.2 °F 34.2 °F 37.4 °F 93% 30.21 in 10.0 mi North 6.9 mph - N/A   Clear
8:34 AM 39.2 °F 35.0 °F 37.4 °F 93% 30.21 in 7.0 mi North 5.8 mph - N/A   Clear
8:53 AM 39.2 °F 35.0 °F 37.4 °F 93% 30.21 in 10.0 mi NNW 5.8 mph - N/A   Scattered Clouds
9:14 AM 39.2 °F 35.0 °F 37.4 °F 93% 30.21 in 10.0 mi North 5.8 mph - N/A   Scattered Clouds
9:34 AM 41.0 °F 37.1 °F 37.4 °F 87% 30.21 in 10.0 mi North 5.8 mph - N/A   Scattered Clouds
9:53 AM 41.0 °F 37.1 °F 37.4 °F 87% 30.21 in 10.0 mi North 5.8 mph - N/A   Scattered Clouds
10:14 AM 42.8 °F 38.6 °F 37.4 °F 81% 30.20 in 10.0 mi North 6.9 mph - N/A   Scattered Clouds
10:33 AM 42.8 °F 38.6 °F 37.4 °F 81% 30.20 in 10.0 mi NNW 6.9 mph - N/A   Scattered Clouds
10:59 AM 42.8 °F 38.6 °F 37.4 °F 81% 30.20 in 10.0 mi North 6.9 mph - N/A   Clear
11:14 AM 42.8 °F 39.3 °F 37.4 °F 81% 30.20 in 10.0 mi NW 5.8 mph - N/A   Scattered Clouds
11:34 AM 42.8 °F 37.5 °F 37.4 °F 81% 30.20 in 10.0 mi NNW 9.2 mph - N/A   Scattered Clouds
11:54 AM 44.6 °F 39.7 °F 39.2 °F 81% 30.20 in 10.0 mi North 9.2 mph - N/A   Clear
12:13 PM 44.6 °F 40.2 °F 39.2 °F 81% 30.20 in 10.0 mi NNW 8.1 mph - N/A   Scattered Clouds
12:34 PM 44.6 °F 39.7 °F 37.4 °F 76% 30.20 in 10.0 mi North 9.2 mph - N/A   Scattered Clouds
1:13 PM 44.6 °F 39.7 °F 39.2 °F 81% 30.19 in 10.0 mi NNW 9.2 mph - N/A   Scattered Clouds
1:34 PM 46.4 °F 41.9 °F 39.2 °F 76% 30.19 in 10.0 mi NNW 9.2 mph - N/A   Scattered Clouds
1:54 PM 46.4 °F 41.5 °F 39.2 °F 76% 30.19 in 10.0 mi NNW 10.4 mph - N/A   Scattered Clouds
2:13 PM 46.4 °F 41.9 °F 39.2 °F 76% 30.19 in 10.0 mi NNW 9.2 mph - N/A   Scattered Clouds
2:34 PM 46.4 °F 42.4 °F 39.2 °F 76% 30.18 in 10.0 mi NNW 8.1 mph - N/A   Scattered Clouds
2:54 PM 46.4 °F 41.9 °F 39.2 °F 76% 30.18 in 10.0 mi NNW 9.2 mph - N/A   Scattered Clouds
3:34 PM 48.2 °F - 39.2 °F 71% 30.17 in 10.0 mi NNW 11.5 mph 16.1 mph N/A   Mostly Cloudy
3:53 PM 48.2 °F - 39.2 °F 71% 30.16 in 10.0 mi North 10.4 mph - N/A   Mostly Cloudy
4:14 PM 48.2 °F - 39.2 °F 71% 30.16 in 10.0 mi NNW 10.4 mph - N/A   Scattered Clouds
4:33 PM 48.2 °F - 39.2 °F 71% 30.15 in 10.0 mi North 10.4 mph - N/A   Scattered Clouds
4:54 PM 48.2 °F - 39.2 °F 71% 30.15 in 10.0 mi NNW 8.1 mph - N/A   Mostly Cloudy
5:14 PM 48.2 °F - 39.2 °F 71% 30.15 in 10.0 mi NNW 10.4 mph - N/A   Scattered Clouds
5:33 PM 48.2 °F - 39.2 °F 71% 30.14 in 10.0 mi NNW 10.4 mph - N/A   Mostly Cloudy
5:54 PM 48.2 °F - 39.2 °F 71% 30.14 in 10.0 mi NNW 10.4 mph - N/A   Mostly Cloudy
6:14 PM 48.2 °F - 39.2 °F 71% 30.14 in 10.0 mi NNW 9.2 mph - N/A   Mostly Cloudy
6:33 PM 48.2 °F - 39.2 °F 71% 30.14 in 10.0 mi NNW 8.1 mph - N/A   Overcast
6:54 PM 48.2 °F - 39.2 °F 71% 30.14 in 10.0 mi NNW 6.9 mph - N/A Rain Light Rain
7:14 PM 48.2 °F - 39.2 °F 71% 30.14 in 10.0 mi North 4.6 mph - N/A Rain Light Rain
7:33 PM 48.2 °F - 39.2 °F 71% 30.14 in 10.0 mi North 4.6 mph - N/A Rain Light Rain
7:54 PM 46.4 °F 43.5 °F 39.2 °F 76% 30.14 in 10.0 mi North 5.8 mph - N/A   Overcast
8:14 PM 46.4 °F 43.5 °F 39.2 °F 76% 30.14 in 10.0 mi NNW 5.8 mph - N/A   Mostly Cloudy
8:33 PM 46.4 °F 43.5 °F 39.2 °F 76% 30.14 in 10.0 mi NNW 5.8 mph - N/A   Overcast
8:54 PM 46.4 °F 45.2 °F 39.2 °F 76% 30.14 in 10.0 mi NW 3.5 mph - N/A   Overcast
9:33 PM 46.4 °F 44.3 °F 39.2 °F 76% 30.14 in 10.0 mi WNW 4.6 mph - N/A   Overcast
9:54 PM 46.4 °F 45.2 °F 39.2 °F 76% 30.14 in 10.0 mi WNW 3.5 mph - N/A   Overcast
10:13 PM 46.4 °F 44.3 °F 39.2 °F 76% 30.14 in 10.0 mi NW 4.6 mph - N/A   Overcast
10:34 PM 44.6 °F 42.2 °F 39.2 °F 81% 30.14 in 10.0 mi WNW 4.6 mph - N/A   Overcast
10:54 PM 44.6 °F 42.2 °F 39.2 °F 81% 30.14 in 10.0 mi WNW 4.6 mph - N/A   Mostly Cloudy
11:13 PM 44.6 °F 42.2 °F 39.2 °F 81% 30.14 in 10.0 mi WNW 4.6 mph - N/A   Overcast
11:34 PM 44.6 °F 42.2 °F 39.2 °F 81% 30.14 in 10.0 mi WNW 4.6 mph - N/A   Overcast
11:54 PM 44.6 °F 42.2 °F 39.2 °F 81% 30.14 in 10.0 mi WNW 4.6 mph - N/A   Overcast